{"data":{"norad_id":52542,"intl_designator":"2022-051K","name":"STARLINK-3937","alt_names":[],"object_type":"PAYLOAD","status":"ACTIVE","operator":null,"country":"US","launch_date":"2022-05-13","launch_site_code":"AFWTR","launch_vehicle":null,"mission":null,"orbit_class":"UNKNOWN","rcs_meters":null,"size_class":null,"mass_kg":null,"dimensions":null,"purposes":["comms"],"wikipedia_slug":null,"has_3d_model":false,"image_url":null,"decayed_at":null,"tle_current":{"epoch":"2026-05-24T17:22:55.201728Z","epoch_age_seconds":102909,"freshness":"FRESH","line1":"1 52542U 22051K   26144.72425002  .00000150  00000+0  27481-4 0  9998","line2":"2 52542  53.2143 147.7879 0001104  73.5228 286.5885 15.08835308222924","mean_motion":15.08835308,"eccentricity":0.0001104,"inclination_deg":53.2143,"raan_deg":147.7879,"arg_perigee_deg":73.5228,"mean_anomaly_deg":286.5885,"bstar":2.7481e-5,"rev_number":22292,"period_min":95.437851458338,"perigee_km":538.99399498995,"apogee_km":540.52146614646,"semimajor_km":6917.8947305682,"source":"CELESTRAK","updated_at":"2026-05-25T13:38:17.162836Z"}}}